Weather Service Report


137 
ASUS43 KMKX 300600
RWRWI 

WISCONSIN REGIONAL WEATHER ROUNDUP
NATIONAL WEATHER SERVICE MILWAUKEE/SULLIVAN WI
100 AM CDT TUE JUN 30 2015

NOTE: "FAIR" INDICATES FEW OR NO CLOUDS BELOW 12,000 FEET WITH NO
SIGNIFICANT WEATHER AND/OR OBSTRUCTIONS TO VISIBILITY.

WIZ001-002-006>008-014>016-023>028-300700-
NORTHWEST WISCONSIN
  
CITY           SKY/WX    TMP DP  RH WIND       PRES   REMARKS
SUPERIOR ARPT  PTCLDY    62  59  90 NE6       29.86R                  
ASHLAND        PTCLDY    59  58  96 NE6       29.85S                  
6HR MIN TEMP:  57; 6HR MAX TEMP:  72; 6HR PCP:  0.14;                

HAYWARD        FOG       58  57  97 CALM      29.85S VSB 1            
6HR MIN TEMP:  57; 6HR MAX TEMP:  70; 6HR PCP: TRACE;                

SIREN          FOG       58  57  97 CALM      29.86S VSB 3/4          
CUMBERLAND     PTCLDY    57  55  94 CALM      29.85S FOG              
RICE LAKE      FOG       58  57  95 W3        29.86S VSB 3/4          
CHETEK         MOCLDY    58  58 100 W5        29.84S FOG              
LADYSMITH      MOCLDY    60  59  94 N5        29.85S                  
EAU CLAIRE     FOG       57  57 100 CALM      29.82F VSB 3/4          
MENOMONIE      CLEAR     60  59  97 W3        29.84S FOG              
NEW RICHMOND   MOCLDY    59  59 100 NE3       29.85S FOG              
OSCEOLA        FOG       61  61 100 NE3       29.87S VSB 1/2          
$$
 
WIZ003>005-009-010-017-018-300700-
NORTH CENTRAL WISCONSIN
  
CITY           SKY/WX    TMP DP  RH WIND       PRES   REMARKS
MANITOWISH WTR CLOUDY    59  59 100 NE5       29.84S                  
ARBOR VITAE    CLEAR     62  60  94 N6        29.83S                  
WOODRUFF       CLEAR     62  60  94 N6        29.83S                  
RHINELANDER    CLEAR     59  57  93 CALM      29.83R                  
6HR MIN TEMP:  59; 6HR MAX TEMP:  65; 6HR PCP:  0.01;                

EAGLE RIVER    MOCLDY    59  59 100 N5        29.82S                  
LAND O LAKES   CLOUDY    59  58  96 N3        29.84S                  
PHILLIPS       PTCLDY    59  59  99 NW5       29.83R                  
TOMAHAWK       CLOUDY    55  55  97 CALM      29.83R FOG              
MEDFORD        CLOUDY    57  57 100 CALM      29.83S FOG              
MERRILL        MOCLDY    58  58 100 W3        29.82S                  
$$
 
WIZ029-030-035-036-043>047-300700-
CENTRAL WISCONSIN
  
CITY           SKY/WX    TMP DP  RH WIND       PRES   REMARKS
WAUSAU         PTCLDY    60  58  92 NW6       29.79S FOG              
6HR MIN TEMP:  59; 6HR MAX TEMP:  63;                                

MOSINEE        NOT AVBL                                               
MARSHFIELD     PTCLDY    59  55  87 NW7       29.82R FOG              
6HR MIN TEMP:  58; 6HR MAX TEMP:  63;                                

STEVENS POINT  CLEAR     58  57  97 CALM      29.80F FOG              
WAUPACA        CLEAR     60  60  99 W3        29.79S                  
WAUTOMA        NOT AVBL                                               
WISC RAPIDS    CLEAR     58  55  90 NW5       29.81F                  
6HR MIN TEMP:  58; 6HR MAX TEMP:  63; 6HR PCP: TRACE;                

CAMP DOUGLAS   FOG       54  54 100 W6        29.81S VSB<1/4          
$$
 
WIZ011>013-019>022-031-037>040-048>050-300700-
NORTHEAST WISCONSIN
  
CITY           SKY/WX    TMP DP  RH WIND       PRES   REMARKS
ANTIGO         PTCLDY    55  55 100 NW3       29.81S FOG              
SHAWANO        MOCLDY    62  60  94 W3        29.77S                  
OCONTO         CLOUDY    63  63 100 N3        29.76R                  
STURGEON BAY   CLOUDY    63  57  82 SE6       29.78S                  
6HR MIN TEMP:  63; 6HR MAX TEMP:  68;                                

GREEN BAY      CLOUDY    64  62  93 CALM      29.76S                  
6HR MIN TEMP:  64; 6HR MAX TEMP:  69; 6HR PCP:  0.57;                

MANITOWOC      NOT AVBL                                               
APPLETON       MOCLDY    59  59 100 W8        29.78S                  
CLINTONVILLE   PTCLDY   N/A N/A N/A W5        29.78S                  
OSHKOSH        MOCLDY    62  58  86 W8        29.77S                  
6HR MIN TEMP:  62; 6HR MAX TEMP:  73; 6HR PCP:  0.14;                

$$
 
WIZ032>034-041-042-053>061-300700-
SOUTHWEST WISCONSIN
  
CITY           SKY/WX    TMP DP  RH WIND       PRES   REMARKS
LA CROSSE      CLEAR     62  60  93 NW3       29.82F                  
6HR MIN TEMP:  61; 6HR MAX TEMP:  66; 6HR PCP:  0.03;                

SPARTA         FOG       55  54  97 CALM      29.83S VSB 1/2          
VIROQUA        CLEAR     59  59 100 W3        29.83F                  
BOSCOBEL       FOG       60  58  92 CALM      29.82S VSB 1            
6HR MIN TEMP:  60; 6HR MAX TEMP:  70; 6HR PCP:  0.20;                

PRAIRIE DU CHI MOCLDY    61  60  96 CALM      29.82R                  
PLATTEVILLE    MOCLDY    61  61  99 NW3       29.82R                  
$$

WIZ056-057-062-063-064-067-068-300700-
SOUTH CENTRAL WISCONSIN
  
CITY           SKY/WX    TMP DP  RH WIND       PRES   REMARKS
REEDSBURG      PTCLDY    59  58  99 CALM      29.81S                  
BARABOO/DELLS  PTCLDY    58  56  94 CALM      29.81F FOG              
LONE ROCK      PTCLDY    61  59  93 CALM      29.82S FOG              
MINERAL POINT  PTCLDY    63  61  94 W5        29.82R                  
MADISON        MOCLDY    62  59  90 NW5       29.80R                  
6HR MIN TEMP:  61; 6HR MAX TEMP:  76; 6HR PCP: TRACE;                

MIDDLETON      MOCLDY    62  62  99 W6        29.82R                  
WATERTOWN      MOCLDY    61  61 100 CALM      29.78S                  
MONROE         MOCLDY    61  61 100 W8        29.81R                  
JANESVILLE     PTCLDY    61  59  94 NW3       29.78S                  
$$
 
WIZ051-052-058>065-066-070>072-300700-
SOUTHEAST WISCONSIN
  
CITY           SKY/WX    TMP DP  RH WIND       PRES   REMARKS
MILWAUKEE      MOCLDY    63  60  90 CALM      29.77S                  
6HR MIN TEMP:  62; 6HR MAX TEMP:  70;                                

WAUKESHA       MOCLDY    61  59  94 CALM      29.79S FOG              
MILWAUKEE/TIMM CLOUDY    63  59  88 CALM      29.79R                  
RACINE         PTCLDY    63  61  93 S6        29.79S                  
6HR MIN TEMP:  63; 6HR MAX TEMP:  66;                                

BURLINGTON     CLOUDY    60  60  98 CALM      29.78S FOG              
KENOSHA        MOCLDY    63  61  93 CALM      29.78S FOG              
6HR MIN TEMP:  63; 6HR MAX TEMP:  71;                                

FOND DU LAC    MOCLDY    62  60  93 CALM      29.78S                  
6HR MIN TEMP:  62; 6HR MAX TEMP:  72; 6HR PCP:  0.01;                

SHEBOYGAN      CLOUDY    62  61  96 S5        29.77S FOG              
6HR MIN TEMP:  62; 6HR MAX TEMP:  70;                                

WEST BEND      CLOUDY    63  61  94 CALM      29.78S FOG              
JUNEAU         MOCLDY    62  60  94 W3        29.80S                  
$$

LSZ147-162-300700-
LAKE SUPERIOR
  
STATION/POSITION TIME  TEMP    WIND        PRES    WAVE
                       AIR SEA DIR/SP/G            HT/PER
                 (UTC) (F)     (DEG/KT/KT) (MB)    (FT/S)
W MID LAKE BUOY  0450   45 38   10/  8/  8 1010.8R   0
DEVILS ISLAND    0500   58      40/  4/  4 1010.9R
SAXON HARBOR     0540   59        CALM     1010.8R
$$
 
LMZ867-665-643>646-300700-
LAKE MICHIGAN
  
STATION/POSITION TIME  TEMP    WIND        PRES    WAVE
                       AIR SEA DIR/SP/G            HT/PER
                 (UTC) (F)     (DEG/KT/KT) (MB)    (FT/S)
CHAMBERS ISLAND  0500   63     220/  2/  3 1008.1R
S GREEN BAY BUOY 0430   68 71  180/  2/  4 1008.8F
N MID LAKE BUOY  0450   53 52  190/ 10/ 12 1008.2F   1/ 3
NORTHPORT PIER   0500   62      CALM  /  4 1007.8F
SISTER BAY       0444   61     170/  7/  8   N/A
ALGOMA LAKESHORE 0510          210/  9/ 11   N/A
KEWAUNEE LAKESHO 0500   60     180/  9/ 10 1007.2F
SHEBOYGAN LAKESH 0500   59     180/ 15/ 16 1007.9F
PORT WASHINGTON  0540   61     200/  3/  6 1009.1R
ATWATER BUOY     0500   60 59  150/ 10/ 12 1009.5F
MILWAUKEE LAKESH 0500   61     160/  4/  5   N/A
KENOSHA   LAKESH 0500   62     180/  7/  9 1008.5S
$$

TC  - TEMPERATURE IN CELSIUS
VSB - VISIBILITY IN STATUTE MILES
WCI - WIND CHILL INDEX
HX  - HEAT INDEX


Return to Home page


Western Regional Climate Center, wrcc@dri.edu